Regional Weather Roundup
Issued by NWS

Home | Current Version | Previous Version | Text Only | Print | Product List | Glossary Off
Versions: 1 2 3 4 5 6 7 8 9 10 11 12 13 14 15 16 17 18 19 20 21 22 23 24 25 26 27 28 29 30 31 32 33 34 35 36 37 38 39 40 41 42 43 44 45 46 47 48 49 50

000
ASUS43 KTOP 310559
RWRKS

WEATHER ROUNDUP FOR KANSAS
NATIONAL WEATHER SERVICE GOODLAND KS
1200 AM CST SAT JAN 31 2015

NOTE:  "FAIR" INDICATES FEW OR NO CLOUDS BELOW 12,000 FEET WITH NO
SIGNIFICANT WEATHER AND/OR OBSTRUCTIONS TO VISIBILITY.

KSZ001>006-013>018-027>032-041>047-310700-
NORTHWEST KANSAS

CITY           SKY/WX    TMP DP  RH WIND       PRES   REMARKS
GOODLAND       CLOUDY    33  32  96 S14       30.07F WCI  23
6HR MIN TEMP:  33; 6HR MAX TEMP:  37;

HAYS           CLOUDY    36  28  75 S8        30.22F
HILL CITY      LGT RAIN  36  34  92 S9        30.20F
6HR MIN TEMP:  33; 6HR MAX TEMP:  40; 6HR PCP:  0.05;

RUSSELL        LGT RAIN  35  34  96 S9        30.22F
6HR MIN TEMP:  34; 6HR MAX TEMP:  39; 6HR PCP:  0.10;

$$

KSZ061>065-074>080-084>089-310700-
SOUTHWEST KANSAS

CITY           SKY/WX    TMP DP  RH WIND       PRES   REMARKS
DODGE CITY     LGT RAIN  33  30  88 S14       30.19F WCI  23
6HR MIN TEMP:  32; 6HR MAX TEMP:  41; 6HR PCP:  0.25;

ELKHART          N/A     34  28  79 S13         N/A  WCI  25
GARDEN CITY    CLOUDY    32  31  96 S15       30.15F WCI  22
6HR MIN TEMP:  31; 6HR MAX TEMP:  35; 6HR PCP:  0.17;

LIBERAL        CLOUDY    36  30  80 SE12      30.20F WCI  27
$$

KSZ066>073-081>083-090>101-310700-
SOUTHEAST KANSAS

CITY           SKY/WX    TMP DP  RH WIND       PRES   REMARKS
CHANUTE        CLOUDY    38  28  67 S3        30.36S
6HR MIN TEMP:  37; 6HR MAX TEMP:  40;

COFFEYVILLE    LGT RAIN  38  32  79 CALM      30.37S
6HR MIN TEMP:  38; 6HR MAX TEMP:  41; 6HR PCP: TRACE;

HUTCHINSON     CLOUDY    37  30  75 S7        30.26F
6HR MIN TEMP:  37; 6HR MAX TEMP:  40; 6HR PCP: TRACE;

MEDICINE LODGE   N/A     36  29  75 S6        30.25F
NEWTON         CLOUDY    37  27  65 SE6       30.28F
PARSONS        LGT RAIN  38  30  73 CALM      30.37S
6HR MIN TEMP:  37; 6HR MAX TEMP:  41; 6HR PCP: TRACE;

WICHITA INTL   CLOUDY    40  25  55 S7        30.28F
6HR MIN TEMP:  39; 6HR MAX TEMP:  42; 6HR PCP: TRACE;

WICHITA JABRA  LGT RAIN  37  28  70 E9        30.27F
6HR MIN TEMP:  37; 6HR MAX TEMP:  41; 6HR PCP: TRACE;

WINFIELD       CLOUDY    42  22  44 SE5       30.29F
6HR MIN TEMP:  40; 6HR MAX TEMP:  43;

$$

KSZ007>012-019>026-033>040-048>060-102>105-310700-
NORTHEAST KANSAS

CITY           SKY/WX    TMP DP  RH WIND       PRES   REMARKS
CONCORDIA      LGT RAIN  34  33  96 S5        30.28F
6HR MIN TEMP:  33; 6HR MAX TEMP:  41; 6HR PCP:  0.12;

EMPORIA        LGT RAIN  35  30  82 S10       30.32F WCI  27
6HR MIN TEMP:  35; 6HR MAX TEMP:  38; 6HR PCP: TRACE;

LAWRENCE       CLOUDY    34  24  67 SE3       30.34F
6HR MIN TEMP:  32; 6HR MAX TEMP:  35;

MANHATTAN      LGT RAIN  36  34  92 SW5       30.31F FOG
6HR MIN TEMP:  36; 6HR MAX TEMP:  40; 6HR PCP:  0.03;

OLATHE IND     CLOUDY    34  23  64 SE5       30.34F
6HR MIN TEMP:  32; 6HR MAX TEMP:  36;

OLATHE EXE     CLOUDY    34  22  61 S6        30.33F
6HR MIN TEMP:  33; 6HR MAX TEMP:  36;

SALINA         LGT RAIN  37  33  85 CALM      30.28F
6HR MIN TEMP:  36; 6HR MAX TEMP:  42; 6HR PCP:  0.11;

TOPEKA BILLARD LGT RAIN  38  26  62 S5        30.33S
6HR MIN TEMP:  35; 6HR MAX TEMP:  39; 6HR PCP: TRACE;

TOPEKA FORBES  LGT RAIN  38  28  67 S7        30.32F
6HR MIN TEMP:  36; 6HR MAX TEMP:  39; 6HR PCP: TRACE;

$$


USA.gov is the U.S. government's official web portal to all federal, state and local government web resources and services.